Wind_Speed
49 50 50 51 52 52 52 51 50 49 48 48 48 47 47 47 47 47 47 46 46 45 45 45 45 44 44 43 42 40 39 38 37 36 34 33 32 31 30 30 29 29 29
47 49 50 51 51 51 51 50 49 48 48 48 48 48 48 48 48 47 47 46 46 46 46 45 44 44 43 42 40 39 37 36 35 33 32 31 30 30 30 29 29 28 28
43 44 45 46 46 46 46 46 46 47 47 47 48 48 48 48 48 47 47 46 46 45 44 44 43 43 41 40 38 36 35 34 33 32 31 30 29 29 29 28 28 28 28
39 40 40 41 42 42 44 45 46 46 47 47 47 47 47 47 47 46 46 45 45 44 43 43 42 41 39 37 35 34 33 33 31 31 30 29 28 28 28 28 28 29 29
36 37 38 40 41 42 43 44 45 46 46 46 46 46 45 45 45 45 44 44 43 42 41 40 39 38 36 34 33 32 32 31 30 29 28 28 28 28 29 29 30 30 31
36 37 38 39 40 41 42 42 43 44 44 44 44 44 44 44 44 43 43 42 41 40 38 37 35 34 33 33 32 31 31 30 29 28 28 28 29 29 30 31 32 32 32
36 37 38 39 40 40 41 42 42 42 42 43 43 43 43 43 42 42 40 39 38 36 35 34 33 32 31 31 30 30 29 29 28 28 29 29 30 31 32 33 33 33 34
37 37 38 39 39 40 41 41 41 41 41 41 41 41 41 40 39 38 37 36 35 34 32 31 30 30 29 29 29 29 29 29 29 29 30 31 32 32 33 34 34 35 36
36 37 38 38 39 39 39 40 39 39 39 39 38 38 37 36 35 34 34 33 32 31 30 29 29 28 28 29 29 29 30 30 30 31 31 32 33 34 35 35 36 36 37
35 35 36 37 37 37 37 37 36 36 36 35 34 34 33 33 32 32 31 30 30 29 29 29 28 29 29 29 29 30 30 31 32 32 33 34 35 35 36 36 37 37 38
34 34 34 35 35 35 34 34 33 33 32 31 31 31 30 30 30 30 29 29 28 28 28 28 29 29 30 30 30 31 31 32 33 34 35 36 36 37 37 38 38 38 39
33 33 32 32 32 32 32 32 31 31 30 30 29 29 28 28 28 28 28 28 28 28 28 29 30 30 30 31 31 32 33 34 35 35 36 37 37 38 38 38 39 39 39
32 32 31 30 30 30 29 28 28 28 28 28 27 27 27 27 28 27 27 27 28 29 29 30 30 31 32 32 33 34 35 35 36 37 37 37 38 38 38 39 39 39 40
31 31 30 29 29 28 27 26 25 26 26 26 26 26 27 27 27 27 27 27 28 28 29 30 31 32 33 34 34 35 36 37 37 38 38 38 39 39 39 39 40 41 42
30 30 29 28 27 27 26 26 25 25 25 25 26 26 25 25 25 26 27 28 28 29 30 31 32 33 34 35 36 37 37 38 38 39 39 39 39 39 40 40 40 41 42
29 28 28 28 28 27 26 25 25 25 26 25 25 25 26 26 26 27 27 28 29 30 31 32 33 34 35 36 37 37 38 38 38 39 39 39 40 40 41 41 41 41 42
28 28 29 28 28 27 27 26 26 26 26 26 25 25 26 26 27 27 28 29 30 31 32 33 34 35 36 37 37 38 38 39 39 39 40 40 40 41 41 41 41 42 42
30 29 28 27 27 27 27 27 26 26 26 26 27 27 28 28 29 29 30 30 31 33 34 35 36 36 37 38 38 39 39 40 40 40 40 41 41 41 41 41 41 42 43
32 31 30 29 28 28 28 28 27 28 28 28 28 29 30 30 31 31 32 32 33 35 36 37 37 38 38 39 39 40 40 40 40 40 40 40 40 41 41 42 42 43 43
33 33 32 31 31 30 30 29 29 30 29 30 30 30 31 32 32 33 34 34 35 36 37 37 38 38 38 39 39 39 39 39 40 40 40 40 41 41 41 42 43 43 44
35 35 34 33 33 32 32 32 32 32 32 31 31 32 32 33 33 33 34 34 35 36 37 37 38 38 38 39 39 39 39 40 40 40 40 41 41 41 42 42 43 44 45
37 36 36 35 34 33 33 33 33 33 33 33 33 33 33 33 33 34 34 34 35 36 36 36 37 38 39 39 39 39 39 39 39 40 40 41 41 41 42 43 44 46 47
38 38 37 35 35 34 34 34 34 34 34 34 34 34 34 34 33 33 33 33 34 35 35 36 36 37 38 38 38 39 39 39 39 40 40 40 41 42 43 44 46 47 48
38 38 37 36 35 34 33 33 34 34 34 34 33 33 32 32 32 32 32 32 33 34 34 34 35 35 36 36 37 37 37 38 39 39 40 40 41 43 44 46 47 48 49
39 38 38 37 35 34 33 33 33 33 33 33 32 31 31 31 31 31 31 32 32 32 32 32 32 32 33 34 35 35 36 37 38 39 40 41 42 44 45 47 48 48 49
38 37 37 36 35 34 33 33 33 32 32 31 30 30 29 29 30 30 30 30 30 30 30 30 31 32 33 34 35 36 37 38 39 39 40 41 43 45 46 47 48 48 49
Wind_Direction
257 259 261 262 263 263 264 265 266 267 268 270 271 273 274 276 277 279 280 282 283 285 286 287 288 290 291 291 291 292 293 294 295 296 297 297 298 300 301 302 302 302 302
259 259 260 261 261 262 263 264 265 267 269 270 271 273 274 276 277 279 280 282 283 284 284 285 287 288 288 288 289 290 291 293 294 295 296 296 297 299 300 301 301 301 301
260 262 262 263 263 264 264 265 266 267 269 271 272 273 275 276 278 279 280 281 282 282 283 284 285 286 285 286 287 288 290 291 292 293 294 295 296 298 299 299 300 300 301
262 262 263 264 265 266 267 267 268 269 270 271 273 274 275 276 277 277 278 279 280 280 281 282 283 283 283 284 285 287 288 289 290 291 292 293 295 297 297 298 298 299 300
264 265 266 266 267 267 268 269 270 270 271 271 272 273 273 274 275 276 276 277 278 278 279 281 281 281 282 283 283 285 286 287 288 290 291 292 294 296 297 297 298 298 299
264 265 266 267 268 269 269 270 271 272 271 272 272 272 273 273 274 275 275 275 276 277 278 278 279 280 280 280 281 283 284 286 288 289 290 291 294 295 296 297 297 298 298
263 264 266 267 268 269 270 271 272 273 274 274 273 273 273 273 273 273 273 273 274 275 276 276 276 277 277 279 281 282 283 285 286 289 290 291 293 295 296 297 297 297 297
263 264 266 267 269 270 271 272 273 274 274 273 273 273 273 272 272 272 271 271 273 273 274 274 274 275 276 278 280 281 282 284 286 288 290 291 293 294 296 296 297 297 297
264 265 266 268 269 270 272 273 274 274 273 273 273 272 271 271 270 270 270 270 270 271 271 271 271 273 275 277 279 281 283 285 287 289 290 292 293 295 296 297 297 297 297
265 267 268 268 269 271 272 273 273 273 273 273 272 272 271 269 268 268 267 267 268 268 269 269 271 273 275 278 280 282 284 286 288 290 291 292 294 295 296 297 297 298 298
265 267 268 269 270 271 272 273 273 273 273 273 272 271 270 269 268 267 266 266 266 267 268 269 271 273 275 278 281 284 285 287 289 291 292 293 294 295 296 297 298 298 298
265 266 267 269 270 271 272 272 272 273 273 273 271 269 268 268 267 267 266 266 266 267 268 270 272 274 276 279 283 285 287 289 290 291 292 293 294 296 297 297 298 299 299
263 264 265 267 270 270 271 273 272 272 272 272 271 270 269 269 268 267 266 266 267 268 270 271 273 276 278 281 284 286 288 289 291 292 293 294 295 296 297 298 299 300 300
262 263 263 266 267 267 269 270 272 274 273 272 272 271 271 269 268 267 267 268 269 271 272 274 276 278 280 283 285 287 288 290 292 293 293 294 296 297 298 299 300 301 301
261 262 263 263 264 265 266 269 271 272 273 273 273 272 271 271 271 271 271 272 272 273 274 276 278 280 282 284 286 289 291 292 292 293 294 295 296 297 298 299 300 301 302
259 259 260 262 263 264 265 266 268 271 272 273 273 273 272 273 273 274 274 275 275 276 277 279 281 283 284 286 288 290 291 292 293 294 295 295 296 297 298 299 300 301 302
258 259 261 262 262 262 263 265 266 268 270 271 272 272 274 274 275 276 277 278 278 279 280 281 283 285 286 287 289 290 291 292 293 294 295 296 297 298 299 299 300 301 302
257 258 260 261 261 260 262 263 265 267 269 271 271 272 273 274 275 276 277 279 280 281 282 283 284 285 287 288 289 290 291 292 293 294 295 296 297 298 299 299 300 301 302
256 257 258 259 259 260 261 263 265 267 269 269 271 272 273 274 276 277 278 280 281 282 283 284 285 286 288 289 290 290 291 292 293 294 295 296 297 298 298 299 300 301 302
254 256 258 258 259 260 261 262 264 266 268 269 270 272 274 276 277 279 280 281 282 283 285 285 286 287 288 289 290 291 292 292 293 294 295 296 297 298 298 299 300 302 303
253 255 256 259 259 260 261 262 264 265 267 269 270 271 273 276 278 280 281 282 283 284 285 286 287 288 289 290 291 291 292 293 293 294 295 296 297 298 299 300 301 302 303
252 253 255 257 258 259 261 262 263 264 266 268 270 272 273 276 278 280 281 283 284 285 286 287 288 288 289 290 290 291 291 292 293 294 295 296 297 298 299 300 301 302 304
251 252 254 255 257 259 261 263 264 265 266 267 269 271 273 275 277 279 281 283 285 287 288 288 288 289 289 290 290 291 291 292 293 295 296 296 297 299 300 301 302 304 305
249 251 252 254 256 258 260 262 264 266 267 268 269 271 272 274 276 278 280 282 285 288 289 290 290 290 291 291 292 292 292 293 294 295 296 297 298 300 301 302 304 305 305
249 250 251 253 254 257 260 262 264 266 267 268 268 269 271 273 276 277 280 283 286 288 290 291 292 292 293 294 294 294 294 295 296 297 297 298 299 301 302 304 305 306 306
250 250 250 250 252 255 258 261 263 265 266 266 266 268 270 273 276 278 281 284 286 288 289 291 293 294 295 295 295 295 296 297 298 298 298 300 301 302 304 305 306 307 307
Height
5731 5733 5735 5736 5737 5739 5740 5741 5742 5742 5743 5743 5744 5744 5743 5743 5743 5742 5741 5740 5739 5738 5736 5735 5733 5730 5728 5726 5723 5720 5718 5715 5713 5710 5707 5704 5702 5699 5697 5694 5692 5689 5686
5720 5722 5723 5725 5726 5727 5728 5729 5730 5731 5731 5732 5732 5732 5732 5732 5731 5731 5730 5729 5728 5727 5725 5724 5722 5720 5718 5715 5713 5711 5708 5706 5704 5701 5699 5696 5694 5691 5689 5686 5684 5682 5679
5710 5711 5712 5713 5714 5715 5716 5717 5718 5719 5720 5720 5720 5720 5720 5720 5719 5719 5718 5717 5716 5715 5714 5712 5711 5709 5707 5705 5703 5701 5699 5697 5695 5693 5690 5688 5686 5683 5681 5679 5676 5674 5672
5699 5701 5702 5703 5704 5704 5705 5706 5707 5707 5708 5708 5708 5708 5708 5708 5707 5707 5706 5705 5704 5703 5702 5701 5700 5698 5697 5695 5694 5692 5690 5689 5687 5684 5682 5680 5678 5675 5673 5671 5669 5666 5664
5690 5691 5692 5693 5693 5694 5694 5695 5695 5695 5696 5696 5696 5696 5696 5695 5695 5695 5694 5693 5693 5692 5691 5690 5689 5688 5687 5686 5684 5683 5681 5680 5678 5676 5674 5672 5670 5667 5665 5663 5661 5658 5656
5680 5681 5682 5682 5683 5683 5683 5684 5684 5684 5684 5684 5684 5684 5684 5683 5683 5683 5682 5682 5681 5681 5680 5680 5679 5678 5677 5677 5675 5674 5673 5671 5669 5668 5666 5664 5662 5659 5657 5655 5652 5650 5647
5670 5671 5672 5672 5672 5673 5673 5673 5673 5672 5672 5672 5672 5672 5672 5671 5671 5671 5671 5671 5671 5670 5670 5670 5669 5669 5668 5668 5667 5665 5664 5663 5661 5660 5657 5655 5653 5651 5649 5646 5644 5641 5638
5660 5661 5661 5661 5662 5662 5662 5662 5661 5661 5661 5661 5661 5660 5660 5660 5660 5660 5660 5660 5660 5660 5660 5660 5660 5660 5659 5659 5658 5657 5655 5654 5652 5651 5649 5647 5644 5642 5639 5637 5634 5631 5628
5650 5650 5651 5651 5651 5651 5651 5651 5651 5650 5650 5650 5650 5649 5649 5649 5650 5650 5650 5650 5651 5651 5651 5651 5651 5651 5651 5650 5650 5648 5647 5645 5643 5641 5639 5637 5635 5632 5630 5627 5624 5621 5618
5640 5640 5640 5641 5641 5641 5641 5640 5640 5640 5640 5640 5639 5639 5639 5639 5640 5640 5640 5641 5642 5642 5642 5643 5643 5643 5643 5642 5641 5640 5638 5636 5634 5632 5630 5628 5625 5622 5619 5617 5614 5611 5607
5630 5630 5631 5631 5631 5631 5631 5631 5631 5630 5630 5630 5630 5630 5630 5630 5630 5631 5632 5632 5633 5633 5634 5634 5634 5634 5634 5633 5632 5631 5629 5627 5625 5623 5620 5618 5615 5612 5609 5606 5603 5600 5596
5620 5621 5621 5621 5621 5621 5621 5621 5621 5621 5621 5621 5621 5621 5621 5622 5622 5623 5623 5624 5624 5625 5626 5626 5626 5625 5625 5624 5623 5621 5619 5617 5615 5613 5610 5607 5605 5602 5598 5595 5592 5588 5585
5611 5611 5612 5612 5613 5613 5613 5613 5613 5613 5613 5613 5613 5613 5613 5614 5614 5615 5615 5616 5616 5617 5617 5617 5617 5616 5615 5614 5613 5611 5609 5607 5605 5602 5600 5597 5594 5591 5587 5584 5580 5577 5573
5602 5602 5603 5604 5604 5604 5604 5605 5605 5605 5605 5605 5605 5605 5606 5606 5606 5607 5607 5608 5608 5608 5608 5608 5608 5607 5606 5605 5603 5601 5599 5597 5594 5592 5589 5586 5583 5580 5576 5573 5569 5565 5561
5593 5593 5594 5595 5595 5596 5596 5597 5597 5597 5598 5598 5598 5598 5598 5598 5599 5599 5599 5600 5600 5600 5600 5599 5598 5597 5596 5595 5593 5591 5589 5586 5583 5581 5578 5575 5572 5568 5565 5561 5558 5554 5549
5584 5585 5585 5586 5587 5588 5588 5589 5589 5590 5590 5590 5590 5591 5591 5591 5591 5592 5592 5592 5591 5591 5591 5590 5589 5588 5586 5584 5582 5580 5578 5575 5572 5570 5567 5564 5560 5557 5553 5550 5546 5542 5537
5575 5576 5577 5577 5578 5579 5580 5580 5581 5582 5582 5582 5583 5583 5583 5583 5584 5584 5583 5583 5583 5582 5582 5580 5579 5578 5576 5574 5572 5569 5567 5564 5561 5558 5555 5552 5549 5545 5541 5537 5534 5529 5525
5565 5567 5568 5568 5569 5570 5571 5572 5573 5574 5574 5574 5575 5575 5575 5575 5575 5575 5575 5574 5574 5573 5572 5570 5569 5567 5565 5563 5561 5558 5556 5553 5550 5547 5544 5540 5537 5533 5529 5525 5521 5517 5513
5556 5557 5558 5559 5560 5561 5562 5563 5564 5565 5566 5566 5566 5566 5566 5566 5566 5566 5565 5565 5564 5563 5561 5560 5558 5556 5554 5552 5549 5547 5544 5541 5538 5535 5532 5528 5525 5521 5517 5513 5509 5504 5500
5545 5547 5548 5550 5551 5552 5553 5554 5555 5556 5556 5557 5557 5557 5557 5557 5556 5556 5555 5554 5553 5552 5550 5548 5547 5545 5543 5540 5538 5535 5532 5529 5526 5523 5520 5516 5513 5509 5505 5500 5496 5492 5487
5535 5536 5538 5539 5541 5542 5543 5544 5545 5546 5547 5547 5547 5547 5547 5547 5546 5546 5545 5544 5542 5541 5539 5537 5535 5533 5531 5529 5526 5523 5520 5517 5514 5511 5508 5504 5500 5496 5492 5488 5483 5479 5474
5523 5525 5527 5529 5530 5531 5532 5534 5535 5536 5536 5537 5537 5537 5536 5536 5536 5535 5534 5533 5531 5530 5528 5526 5524 5522 5519 5517 5514 5512 5509 5506 5503 5499 5496 5492 5488 5484 5480 5475 5471 5466 5460
5510 5513 5515 5517 5519 5520 5522 5523 5524 5524 5525 5525 5526 5526 5526 5525 5525 5524 5523 5522 5520 5519 5517 5515 5513 5510 5508 5505 5503 5500 5497 5494 5491 5488 5484 5480 5476 5472 5468 5463 5458 5452 5447
5498 5501 5503 5506 5507 5509 5510 5511 5512 5513 5514 5514 5515 5515 5515 5514 5514 5514 5513 5511 5510 5508 5506 5504 5502 5499 5497 5494 5491 5488 5486 5483 5479 5476 5473 5469 5464 5460 5455 5450 5445 5439 5433
5486 5489 5491 5494 5496 5498 5499 5500 5501 5502 5503 5503 5504 5504 5504 5504 5504 5503 5502 5501 5499 5498 5496 5493 5491 5489 5486 5483 5480 5477 5475 5471 5468 5464 5461 5457 5452 5448 5443 5437 5432 5426 5419
5473 5476 5479 5481 5484 5486 5488 5489 5490 5491 5492 5492 5493 5494 5494 5494 5493 5493 5492 5491 5489 5488 5486 5483 5481 5479 5476 5473 5470 5467 5464 5460 5457 5453 5449 5445 5440 5435 5430 5424 5418 5412 5406